NOAA 16 DEB, 42397

Orbit data source: Space-Track

NOAA 16 DEB, 42397 is space debris in SSO originally from a launch on Thu, 21 Sep 2000 UTC launched from the Air Force Western Test Range (AFWTR). Debris objects in space refer to the collection of defunct objects orbiting the Earth. Examples of debris include non-operational satellites, rocket bodies, and fragments generated from explosions, collisions, or faulty payload assembly.

Loading next visibility...
Identifier
42397, 2000-055SR
Orbit
SSO
Country
Flag of USUS
Related business
Manufacturer
Unknown
Mission
Spacecraft
Bus & Motor
Unknown
Mass
Unknown
Launch date (UTC)
2000-09-21 (26 years ago)
Launch vehicle
Unknown
Launch site
Air Force Western Test Range (AFWTR)
Object type
Payload
Rocket body
Debris
Shape & HBR
Unknown shape, 0.1 m
Radar Cross Section
Small (<0.1 m²)

Expand to show TLE details & history
Last TLE update: 3 days ago

TLE from 3 days ago
0 NOAA 16 DEB
1 42397U 00055SR  26104.53645866  .00004764  00000-0  13369-2 0  9996
2 42397  98.7283 199.9980 0033728 124.4265 236.0122 14.46129803524540
Epoch: 2026-04-14T12:52Z
TLE epoch observation values (Epoch: 2026-04-14T12:52:30.028Z)
Latitude
0.00003°
Longitude
164.16158°
Altitude
754.743 km
Speed
7.47 km/s
True Right ascension
13h 19m 59s
True Declination
0° 00' 00"
Sunlit
Object was in full shadow at epoch
Visualization orbit readout
Latitude
Unknown
Longitude
Unknown
Altitude
Unknown
Speed
Unknown
Apparent Right ascension
Unknown
Apparent Declination
Unknown
Sunlit
N/A
Visualization observer readout
Local Sidereal Time
01:14:51
Azimuth
Unknown
Elevation
Unknown
Doppler factor
Unknown
Orbital elements
Apogee altitude
759.434 km
Perigee altitude
711.449 km
Semi-major axis
7,113.579 km
Eccentricity
0.00337
Inclination
98.7283°
RAAN
199.998°
Arg. of periapsis
124.4265°
True anomaly
235.69249°
Mean anomaly
236.0122°
Eccentric anomaly
235.85227°
Mean motion
3.61752 °/min
Orbital period
99.52 mins
BSTAR
0.0013369
Loading maneuver chart data...
Computing Atmospheric mass density...
Loading historical data...
Loading historical data...
Loading historical data...
Loading historical data...
Loading historical data...
Loading historical data...
Loading historical data...

Documentation

Showing up to 5 results
|